CAPE
680 991 1711 1845 2356 1296 390 296 302 82 40 36 17 19 26 32 115 301 0 0 0 195 216 758 1124 1189 949 1360 1392 1252 1341 1061 1199 1307 1174 1207 983 1073 1061 1106 1161 1338 1317 1259 1446 1667 1847 1817 1547
1669 1560 2188 2596 1547 173 242 210 243 217 49 0 0 1 65 4 22 0 0 0 114 131 81 245 1249 1166 1077 1258 1318 1248 1131 1049 1291 1353 1308 1237 1049 1185 1129 1072 1010 1175 1244 1215 1312 1490 1719 1843 1719
1606 1833 2659 1772 453 273 152 162 104 44 18 107 57 0 51 2 0 0 0 0 82 143 892 936 1255 1208 1012 1165 1283 1261 1344 1236 1034 1160 1082 1338 1054 1207 884 1058 1197 1195 1311 1255 1393 1308 1298 1767 1780
2360 2976 2574 1661 113 87 126 109 66 32 36 178 137 85 3 0 0 0 0 3 123 196 519 1244 1470 1281 985 1111 1093 1163 1301 969 1324 990 352 245 506 958 907 947 1094 1174 1351 1358 1215 1221 1503 1555 1710
2021 1526 1632 211 90 153 212 165 99 54 59 70 149 86 214 0 0 0 0 6 71 293 287 594 1410 1471 1384 1167 1130 1215 1057 1194 1016 546 128 62 51 115 205 444 344 1129 1044 1380 1271 1210 1281 1276 1394
2105 828 357 255 66 309 161 256 267 143 186 95 135 323 150 0 0 0 0 16 34 142 148 504 1354 1506 1387 1257 861 1016 1040 1126 697 271 17 12 34 174 335 377 376 857 996 1118 1210 1233 1237 1250 1059
1418 1044 459 218 434 122 312 284 288 181 233 239 222 283 214 0 0 0 15 43 198 159 134 243 487 1270 1545 1369 1316 1240 1204 1085 866 394 232 124 5 41 8 260 278 618 838 757 933 824 892 752 947
1426 931 316 175 197 223 379 395 305 299 172 249 274 361 340 179 26 82 37 305 235 287 136 181 186 145 343 583 1192 1075 1091 1087 965 89 17 1 0 0 0 4 204 466 433 692 793 934 896 818 713
797 839 159 149 113 153 266 289 438 313 238 274 235 284 428 437 601 314 318 342 282 458 383 341 325 282 1191 1191 1190 1100 1206 942 1134 1 0 73 159 12 0 9 16 131 636 681 726 744 831 743 732
476 587 90 180 220 210 251 420 391 317 192 171 175 228 557 514 512 406 270 296 276 343 287 229 474 346 351 198 1327 1805 1358 1597 1217 259 266 73 67 136 49 0 63 273 488 690 660 704 706 793 253
456 393 560 341 221 143 333 306 333 221 145 146 170 355 660 580 493 284 341 231 393 217 359 241 322 440 386 260 451 1256 1268 1156 724 881 233 449 167 275 137 317 211 400 597 1311 533 564 394 292 407
269 371 381 374 202 239 390 290 170 212 257 134 251 507 582 718 544 441 582 435 437 367 382 340 549 533 222 296 408 1267 1120 1056 1152 1300 1002 947 1720 1439 1367 1366 444 756 563 987 1010 268 642 356 570
399 320 219 82 234 401 235 305 258 65 10 9 199 658 602 626 591 483 584 572 614 648 535 429 746 803 554 854 482 626 1483 1020 1060 905 2023 2738 2132 2162 2073 1825 1803 2000 1557 835 480 218 154 293 325
730 525 306 241 360 312 195 71 0 19 41 181 416 609 485 499 609 608 547 588 633 709 634 465 494 697 798 806 1173 1769 1771 1997 1462 1416 1772 1352 3082 2550 2580 2331 2151 2297 973 1371 1062 447 148 190 100
431 409 486 218 273 199 42 57 0 5 157 330 461 383 584 622 785 525 459 527 524 475 390 408 475 361 1237 1514 1874 1482 1637 1252 1055 1158 1710 1857 2040 2360 2373 2615 2634 2111 1615 1449 1540 716 687 170 121
325 289 259 408 398 297 116 388 11 64 260 349 363 377 626 577 459 511 642 402 751 1008 673 916 684 899 1193 1490 2028 1229 1645 1725 1468 2162 1713 1438 1759 2012 2036 2552 2556 2390 1790 1495 1306 1341 1952 694 270
151 42 302 538 484 402 205 321 0 45 256 272 350 388 285 462 446 473 351 368 643 858 1064 922 887 617 1074 1570 1267 1214 1065 1553 1801 2444 2368 1783 1788 1949 2522 2567 2481 2069 1666 2225 1458 1420 1394 1241 1071
216 13 211 396 463 370 317 255 0 17 152 253 190 89 137 327 637 423 135 336 147 181 656 677 770 976 1049 925 1176 987 1025 811 834 1241 2733 1739 2619 1909 1938 1829 2164 2089 1635 1527 1292 1293 1243 1328 1082
118 129 98 107 275 304 307 279 21 0 56 152 192 91 66 53 92 298 342 76 70 165 408 849 792 757 1014 1044 908 736 736 901 973 949 1715 2271 2302 2268 2056 1417 2306 2387 2315 1779 1629 1418 1369 943 828
229 157 62 158 193 157 289 217 136 0 2 84 97 122 69 55 43 124 70 34 48 206 381 519 581 1016 934 732 727 826 852 765 2512 2151 2185 2284 2461 2465 2327 2192 1697 2175 2325 2016 1659 1528 1176 1057 595
12 179 187 258 217 103 221 254 364 45 16 4 54 42 17 45 40 46 43 55 91 236 360 460 712 705 932 918 1041 1089 1171 1408 1157 1823 2093 3115 2495 2478 2410 2132 2239 2102 2409 2914 1922 1779 1651 901 773
338 207 73 93 172 260 295 154 281 262 32 30 19 32 15 37 35 49 45 41 56 99 164 272 549 891 1123 1477 1211 1393 999 1446 2225 1837 2756 1221 2352 2267 2513 2499 2312 2140 2378 2460 2798 2405 2096 2432 1404
142 263 79 123 280 311 181 230 822 344 225 102 16 28 34 23 26 24 18 38 66 67 138 276 635 980 1187 1718 2364 1758 1489 948 989 1950 2549 2731 2478 2670 2361 2688 2747 2589 2137 2315 2338 2796 2879 3072 2501
165 419 285 200 71 188 0 99 335 375 450 258 97 32 28 50 56 40 59 103 97 117 159 176 750 1494 1731 1815 2081 2383 2267 2100 1243 1259 1748 1897 3013 3136 2569 2383 2872 2632 2692 2419 2081 2575 2546 2947 2316
380 320 12 23 56 69 6 233 230 136 125 379 174 95 94 48 65 75 102 120 90 156 162 309 1020 2006 2086 1969 1979 2034 1906 1871 1859 2180 1695 1966 1534 1667 3247 2761 3026 2672 2978 2522 2324 2751 2120 2336 2945
177 72 105 0 62 59 335 87 44 243 182 216 344 124 107 115 100 111 126 151 130 223 308 342 1041 2069 2174 2177 2355 3221 3091 1681 1831 1831 1627 1301 1165 1311 3125 2764 2858 2848 2955 2777 2482 2486 2210 2456 2285
7 428 247 173 253 386 183 312 185 328 328 469 400 355 221 186 170 202 181 176 171 329 320 652 1165 1877 1950 2005 2449 3192 2886 2818 2233 1982 2200 1788 1939 1616 2689 2811 2865 2944 2857 2803 2919 2630 3168 2860 2383
114 90 198 182 191 26 87 157 288 306 422 628 671 535 350 344 318 299 276 217 206 251 530 818 993 1152 1626 1717 2464 2548 2670 2832 2445 2295 2833 2391 2095 2622 2974 3300 3171 3222 3299 3157 2992 2626 2697 2407 3419
411 171 99 42 88 122 111 22 199 573 764 654 637 613 721 490 516 468 359 198 135 273 457 675 816 1000 1382 1637 2762 2982 2791 2677 2832 2615 2879 2968 2784 3148 3581 4163 3828 3377 3337 3222 3259 2715 2143 1521 1793
74 59 30 85 46 178 26 0 329 517 701 773 846 919 983 895 717 695 494 362 178 308 544 589 1710 1114 1563 2102 2877 2599 2598 2802 2400 2570 2562 2967 3160 3215 4472 4480 3778 3026 2345 2196 1736 1415 1044 1041 967
CIN
-183 -130 -32 -5 -0 -1 -0 -0 -0 -6 -17 -30 -45 -27 -43 -31 -11 -0 -0 -0 -0 -0 -6 -1 -0 -0 -0 -0 -0 -0 -0 -0 -0 -0 -0 -0 -2 -1 -2 -0 -0 -0 -0 -0 -0 -0 -0 -0 -0
-25 -44 -12 -0 -3 -14 -0 -0 -0 -0 -24 -0 -0 -16 -13 -61 -64 -0 -0 -0 -7 -7 -10 -3 -1 -0 -0 -0 -0 -0 -0 -0 -0 -0 -0 -0 -1 -0 -4 -2 -1 -0 -0 -0 -0 -1 -1 -0 -0
-81 -55 -0 -0 -6 -1 -3 -3 -6 -15 -61 -7 -44 -0 -29 -15 -0 -0 -0 -0 -7 -16 -0 -20 -2 -0 -0 -0 -0 -0 -0 -0 -1 -0 -4 -0 -4 -1 -7 -6 -0 -0 -0 -0 -0 -2 -2 -0 -0
-39 -0 -0 -18 -12 -26 -2 -18 -34 -3 -30 -1 -2 -13 -54 -0 -0 -0 -0 -0 -3 -2 -9 -19 -0 -0 -0 -0 -1 -2 -0 -1 -0 -1 -7 -4 -2 -0 -5 -1 -4 -2 -0 -0 -0 -0 -1 -0 -0
-19 -9 -27 -1 -17 -3 -0 -1 -24 -14 -27 -26 -14 -32 -24 -0 -0 -0 -0 -0 -4 -0 -7 -13 -0 -0 -0 -0 -0 -1 -0 -0 -1 -0 -54 -72 -38 -6 -5 -8 -9 -1 -0 -0 -0 -0 -0 -0 -0
-0 -1 -66 -1 -17 -0 -3 -0 -0 -2 -0 -13 -12 -0 -10 -0 -0 -0 -0 -0 -0 -9 -12 -12 -3 -0 -0 -1 -2 -0 -1 -0 -0 -3 -109 -150 -42 -8 -6 -2 -6 -5 -0 -0 -0 -0 -0 -0 -4
-0 -7 -11 -12 -2 -80 -0 -0 -1 -4 -0 -0 -0 -0 -9 -0 -0 -0 -22 -4 -8 -19 -8 -1 -1 -3 -0 -3 -0 -0 -0 -0 -0 -4 -0 -0 -14 -22 -4 -12 -3 -6 -0 -0 -0 -0 -0 -0 -0
-26 -4 -3 -2 -1 -0 -0 -1 -0 -0 -1 -1 -0 -5 -1 -8 -24 -20 -28 -1 -6 -5 -4 -27 -6 -4 -1 -13 -4 -1 -0 -0 -0 -16 -34 -1 -0 -0 -0 -5 -4 -4 -1 -4 -0 -0 -0 -0 -3
-10 -0 -104 -3 -5 -2 -0 -0 -1 -5 -0 -1 -6 -0 -2 -6 -0 -4 -0 -0 -3 -1 -7 -0 -9 -3 -5 -1 -4 -5 -2 -0 -0 -30 -25 -32 -4 -20 -0 -6 -7 -6 -0 -3 -0 -0 -0 -0 -7
-10 -0 -218 -2 -0 -0 -0 -1 -5 -0 -0 -0 -2 -11 -0 -0 -0 -0 -2 -0 -0 -0 -0 -0 -1 -1 -0 -4 -4 -0 -6 -2 -3 -34 -23 -55 -44 -11 -29 -0 -15 -1 -0 -0 -0 -0 -6 -11 -1
-0 -1 -57 -0 -1 -0 -0 -3 -1 -1 -2 -2 -7 -0 -0 -0 -0 -0 -0 -0 -0 -2 -0 -0 -0 -0 -0 -0 -0 -9 -13 -40 -21 -17 -46 -16 -41 -10 -27 -10 -0 -0 -1 -0 -0 -1 -8 -3 -29
-2 -4 -0 -3 -3 -0 -0 -0 -0 -2 -1 -12 -0 -0 -0 -0 -0 -0 -0 -1 -0 -0 -1 -0 -0 -0 -3 -0 -0 -10 -13 -71 -18 -23 -20 -5 -4 -0 -0 -0 -0 -0 -0 -0 -4 -0 -5 -0 -4
-0 -0 -5 -21 -5 -0 -1 -0 -1 -17 -21 -30 -0 -0 -0 -0 -0 -0 -0 -0 -0 -0 -0 -0 -0 -7 -19 -3 -0 -3 -13 -22 -41 -28 -5 -1 -0 -0 -0 -0 -0 -0 -9 -3 -0 -1 -0 -0 -0
-65 -3 -0 -0 -0 -0 -0 -7 -0 -22 -29 -2 -0 -0 -4 -3 -1 -0 -0 -0 -0 -0 -0 -0 -3 -38 -11 -1 -0 -1 -11 -18 -29 -24 -24 -0 -0 -0 -0 -0 -0 -0 -0 -3 -12 -2 -5 -0 -4
-5 -2 -0 -0 -0 -2 -4 -2 -0 -9 -11 -0 -0 -4 -0 -0 -1 -0 -1 -0 -0 -1 -0 -0 -5 -34 -1 -0 -0 -0 -12 -13 -26 -0 -1 -0 -0 -0 -1 -0 -0 -0 -0 -0 -3 -0 -1 -7 -13
-0 -6 -0 -1 -0 -2 -12 -3 -41 -39 -5 -0 -0 -7 -2 -0 -0 -0 -0 -3 -1 -0 -0 -0 -0 -0 -0 -3 -4 -6 -9 -8 -33 -11 -0 -5 -0 -0 -5 -0 -0 -1 -0 -0 -0 -1 -1 -4 -6
-137 -59 -11 -1 -3 -0 -2 -1 -0 -37 -6 -1 -0 -0 -1 -1 -2 -0 -0 -0 -0 -0 -0 -0 -0 -0 -0 -1 -0 -0 -0 -7 -35 -9 -14 -3 -0 -0 -0 -4 -1 -0 -0 -1 -4 -0 -0 -2 -19
-1 -94 -1 -8 -5 -1 -0 -0 -0 -31 -0 -0 -5 -13 -7 -0 -0 -0 -11 -0 -7 -19 -4 -0 -0 -1 -0 -0 -0 -0 -0 -0 -0 -0 -24 -12 -1 -0 -1 -3 -8 -0 -0 -0 -1 -0 -0 -2 -36
-3 -8 -8 -0 -0 -0 -1 -0 -20 -0 -26 -0 -2 -50 -4 -8 -52 -0 -0 -80 -36 -23 -23 -6 -3 -11 -4 -0 -0 -0 -0 -0 -0 -0 -2 -0 -0 -0 -0 -0 -1 -0 -2 -0 -0 -0 -0 -0 -0
-0 -0 -70 -2 -3 -9 -0 -0 -11 -0 -10 -2 -2 -20 -3 -0 -1 -33 -43 -0 -13 -21 -14 -3 -6 -6 -14 -0 -0 -0 -0 -1 -10 -17 -1 -0 -0 -0 -0 -0 -0 -0 -0 -0 -0 -0 -0 -0 -0
-46 -0 -0 -30 -1 -17 -4 -0 -4 -33 -46 -20 -25 -15 -15 -3 -0 -0 -2 -0 -29 -1 -3 -5 -9 -14 -16 -9 -0 -2 -3 -1 -0 -1 -17 -0 -0 -0 -0 -0 -0 -0 -0 -0 -0 -0 -0 -1 -0
-49 -6 -23 -17 -6 -24 -0 -7 -12 -30 -46 -59 -45 -43 -52 -45 -35 -13 -16 -31 -25 -20 -17 -9 -6 -14 -17 -20 -0 -1 -0 -1 -2 -7 -11 -0 -0 -0 -0 -0 -0 -0 -10 -0 -0 -0 -0 -0 -1
-17 -21 -27 -32 -0 -0 -2 -0 -0 -18 -29 -29 -35 -34 -39 -58 -51 -61 -46 -35 -15 -13 -6 -2 -10 -14 -28 -28 -8 -18 -4 -0 -0 -10 -2 -5 -6 -7 -0 -0 -0 -0 -0 -0 -0 -0 -0 -4 -0
-39 -5 -8 -20 -43 -106 -0 -5 -0 -6 -0 -15 -29 -35 -38 -35 -53 -66 -44 -17 -16 -14 -2 -0 -5 -26 -37 -40 -44 -12 -1 -3 -0 -1 -1 -3 -15 -30 -10 -0 -0 -0 -0 -0 -0 -0 -1 -0 -0
-9 -2 -40 -35 -26 -0 -7 -7 -0 -6 -7 -0 -18 -28 -39 -44 -48 -56 -47 -36 -43 -17 -7 -2 -6 -24 -39 -40 -38 -40 -23 -14 -4 -1 -0 -2 -0 -2 -7 -8 -0 -0 -0 -0 -0 -0 -0 -1 -0
-11 -8 -17 -0 -1 -91 -7 -18 -4 -3 -17 -12 -1 -31 -24 -26 -29 -19 -32 -26 -39 -13 -0 -0 -5 -17 -24 -42 -36 -22 -16 -23 -12 -1 -1 -0 -1 -1 -4 -1 -0 -0 -0 -0 -0 -0 -2 -0 -0
-54 -1 -0 -3 -1 -17 -0 -0 -20 -19 -15 -24 -1 -14 -29 -19 -0 -7 -6 -9 -18 -0 -1 -0 -1 -9 -14 -23 -42 -32 -38 -30 -6 -1 -2 -0 -2 -0 -6 -5 -0 -0 -0 -0 -0 -0 -5 -4 -0
-4 -264 -3 -5 -1 -22 -81 -0 -0 -21 -15 -17 -2 -13 -8 -19 -1 -0 -0 -0 -1 -0 -0 -0 -0 -0 -3 -1 -30 -40 -43 -45 -32 -16 -10 -1 -0 -3 -2 -0 -0 -0 -0 -0 -0 -0 -1 -3 -1
-3 -4 -24 -151 -2 -9 -3 -110 -1 -9 -11 -17 -12 -19 -2 -0 -0 -0 -0 -0 -0 -0 -0 -0 -0 -1 -1 -2 -0 -20 -37 -42 -41 -27 -23 -22 -12 -2 -0 -0 -0 -0 -1 -0 -0 -4 -14 -17 -4
-28 -0 -4 -1 -233 -22 -9 -0 -13 -21 -21 -24 -24 -30 -28 -0 -0 -0 -1 -0 -1 -2 -2 -0 -3 -0 -5 -14 -22 -35 -37 -36 -25 -28 -24 -24 -25 -14 -0 -0 -1 -4 -0 -0 -11 -20 -17 -1 -0
Wind_Speed
13 14 10 4 4 4 6 13 15 15 12 16 12 8 11 13 10 6 17 13 16 16 15 12 7 7 7 7 8 8 7 7 7 6 6 5 3 3 3 3 4 6 7 9 9 12 13 13 14
10 2 6 7 4 2 8 12 13 13 16 15 10 6 5 7 9 15 14 16 15 15 15 15 10 8 7 7 7 6 8 7 7 6 6 6 4 5 5 6 5 6 9 10 10 11 13 14 14
8 7 9 4 5 9 8 11 12 15 14 9 6 0 1 4 6 16 17 17 14 13 19 16 11 8 8 7 8 6 7 7 7 6 5 7 5 6 5 5 7 7 7 10 10 12 14 14 15
5 7 7 3 7 8 11 14 11 14 9 4 9 10 6 5 7 7 16 15 13 12 21 16 11 10 9 8 9 8 9 8 9 8 9 10 6 4 5 4 6 7 7 8 9 11 13 13 14
8 6 4 9 10 14 10 11 12 12 7 7 2 7 9 12 6 12 15 13 13 15 17 15 11 10 9 8 8 9 8 8 10 12 14 13 8 6 3 5 5 6 8 8 9 9 12 11 11
8 4 4 6 9 11 9 8 8 6 7 10 3 11 9 16 15 12 11 12 12 11 20 15 12 9 10 9 11 9 9 9 12 14 13 7 4 7 5 3 4 6 7 8 8 9 9 11 9
14 1 8 13 11 5 9 6 4 6 6 6 4 6 12 16 18 16 10 9 12 11 15 15 15 11 9 9 11 10 9 10 12 12 13 10 5 4 6 8 2 5 7 7 9 9 9 9 10
7 6 5 9 11 5 9 7 5 2 6 8 5 4 13 16 19 14 12 12 11 12 9 14 15 14 13 11 10 8 9 11 13 10 7 6 1 2 3 5 2 2 5 7 9 9 8 8 8
11 10 3 8 5 8 10 6 4 3 5 4 4 3 19 21 18 19 15 12 11 12 12 13 11 11 9 12 11 9 10 10 12 11 7 4 2 4 5 4 3 3 5 6 7 8 9 8 8
10 10 3 9 4 2 10 3 5 7 7 7 6 3 18 18 18 16 14 11 13 11 11 8 13 11 12 6 10 9 6 7 7 6 6 2 3 4 5 5 4 3 6 7 7 8 10 12 9
11 4 24 7 7 4 7 4 8 5 5 3 9 9 17 16 17 16 18 15 13 12 9 11 10 4 8 6 7 2 6 7 8 10 8 8 6 5 5 3 5 7 9 6 9 8 9 9 7
3 3 7 7 4 1 7 5 3 7 8 6 7 12 14 16 16 16 15 12 12 14 11 14 12 6 6 5 4 6 7 6 7 6 12 6 4 5 5 5 8 7 7 9 6 7 2 4 2
4 6 2 1 3 2 5 2 5 2 4 4 7 14 14 15 17 14 10 12 10 13 12 12 13 6 6 5 3 2 2 2 4 4 9 7 5 6 6 6 6 6 5 9 6 5 4 5 7
23 4 1 3 4 5 4 5 6 6 2 7 11 14 12 16 14 13 11 11 9 12 11 12 12 9 8 6 2 3 5 5 5 6 7 2 5 5 5 5 6 6 8 4 4 5 6 6 8
6 1 3 5 5 3 5 1 6 4 7 11 13 13 15 15 17 15 13 10 12 11 12 13 11 11 10 7 7 7 6 2 4 2 3 1 3 5 5 5 6 6 7 7 4 5 4 6 5
6 6 9 8 5 4 6 8 7 7 10 12 15 14 12 13 15 16 13 15 10 9 11 14 11 16 13 5 6 4 2 2 4 5 1 1 2 2 3 4 4 4 6 7 6 5 5 6 7
13 8 6 10 7 3 7 5 11 9 11 12 13 17 13 10 10 14 14 10 11 6 9 7 4 5 3 8 5 6 3 4 5 3 4 3 3 1 3 1 2 6 7 7 7 7 6 4 9
4 5 2 11 6 6 8 6 9 10 11 13 12 14 12 13 15 14 16 12 12 11 10 7 8 4 4 3 5 5 3 4 3 2 5 2 3 1 3 2 3 4 4 5 4 4 6 6 9
6 2 11 1 7 6 5 10 10 11 10 12 13 15 14 12 9 15 12 12 14 12 12 11 9 8 6 8 6 5 5 4 4 3 3 2 4 2 0 0 5 3 4 4 5 7 6 8 5
6 8 13 8 7 8 10 9 14 12 12 12 13 13 16 18 15 18 19 17 15 14 12 12 8 11 8 6 5 3 3 1 2 4 3 1 3 3 3 3 3 4 2 5 6 7 6 7 5
24 4 4 16 9 11 7 10 16 14 13 12 13 14 15 16 19 18 17 16 14 14 13 11 10 8 8 7 5 3 4 4 5 2 1 4 4 4 2 2 3 1 5 5 7 7 8 5 6
17 6 3 4 1 5 12 7 14 17 15 15 15 15 16 18 18 20 19 15 15 13 12 11 9 9 8 8 7 6 6 6 4 7 4 3 2 3 4 2 4 4 1 6 6 6 7 6 5
9 6 5 8 13 2 8 4 12 16 18 17 17 18 17 18 18 16 17 18 17 15 14 12 11 9 8 11 9 8 8 6 3 1 3 4 4 5 5 6 5 5 7 6 5 6 7 4 5
8 8 6 7 13 7 5 7 7 13 15 19 19 18 18 17 16 16 14 13 15 14 13 11 10 9 10 11 11 9 8 8 4 4 4 5 6 6 6 5 5 6 4 4 5 5 6 7 4
10 14 9 12 5 1 5 8 10 10 9 15 20 18 18 18 17 17 16 15 14 12 11 10 12 11 12 13 12 12 10 9 7 5 7 5 5 6 10 5 6 6 8 6 6 4 6 7 6
10 13 8 6 6 11 8 10 9 9 7 3 17 19 18 18 18 18 18 16 14 14 13 12 13 12 13 13 12 10 10 8 8 8 8 6 5 2 6 4 5 7 7 7 7 7 8 8 9
15 12 18 3 14 12 9 16 7 9 8 6 6 17 18 18 17 17 17 16 15 14 15 13 13 12 13 14 12 10 10 11 7 6 8 7 6 7 7 7 7 7 6 7 6 8 6 5 5
10 18 9 7 3 2 10 14 9 9 8 6 6 9 16 18 18 17 15 16 16 17 17 14 14 14 13 12 12 11 11 10 9 8 9 8 6 6 5 6 8 8 8 7 7 6 5 5 4
9 12 7 12 9 2 3 12 7 8 7 5 5 5 10 16 19 16 15 16 16 15 15 16 12 11 11 11 11 10 11 12 11 11 11 10 10 8 8 8 7 7 7 5 4 4 5 3 3
9 12 16 3 6 17 3 16 5 8 7 5 6 2 3 12 15 16 16 13 13 12 7 4 2 11 9 8 9 12 12 12 13 12 11 9 10 9 6 6 4 4 5 3 4 2 4 5 5
Wind_Direction
226 220 222 237 259 199 63 83 90 110 95 67 55 40 56 35 19 63 135 129 132 128 120 143 143 136 134 122 127 123 119 118 119 116 118 120 113 111 139 143 126 112 118 115 116 125 124 125 120
273 290 247 260 253 57 83 109 118 90 102 116 112 74 122 72 62 127 124 128 159 129 153 129 137 142 139 129 121 119 119 108 114 116 116 110 109 103 135 118 121 125 122 117 119 124 131 129 127
264 252 263 262 59 90 118 108 87 106 124 128 111 224 158 76 117 139 124 142 134 112 98 112 132 138 137 136 122 123 116 116 103 101 107 103 99 112 118 126 125 124 124 122 122 126 132 131 126
244 216 235 234 75 111 100 99 108 129 122 62 105 97 88 104 98 91 149 155 135 129 95 116 129 129 134 136 122 120 120 119 107 90 73 59 80 95 120 146 132 130 124 128 128 123 124 132 131
240 262 276 68 45 87 95 112 125 142 134 123 254 123 92 140 95 145 149 156 143 128 112 125 131 140 136 122 118 123 124 112 103 100 76 29 43 36 120 145 134 137 138 131 129 131 130 130 138
259 230 350 88 112 114 113 127 137 126 108 103 181 107 113 137 141 145 187 158 149 128 117 134 136 145 133 133 128 120 121 111 104 110 115 157 30 30 47 59 148 147 141 131 134 138 139 137 142
261 22 253 105 131 336 114 128 140 135 150 139 79 125 117 156 140 162 170 148 132 150 119 137 142 137 122 108 111 128 117 115 117 124 128 126 126 16 26 23 31 162 141 142 140 141 140 146 150
275 266 306 125 125 144 121 146 74 97 83 80 253 2 155 148 151 131 157 172 161 135 177 154 143 155 154 156 133 123 127 129 124 110 104 147 223 343 277 311 40 205 167 158 152 148 152 150 159
254 266 310 137 80 135 147 148 120 359 105 190 135 317 145 142 146 165 161 173 154 139 202 142 134 149 149 143 140 161 156 143 131 153 190 152 203 246 224 47 337 226 163 159 157 168 170 171 170
255 278 303 63 44 59 142 125 138 229 162 164 170 120 126 149 162 169 155 171 159 180 164 132 148 167 139 143 140 166 176 135 178 166 173 179 210 217 218 244 266 209 198 167 163 175 190 202 180
255 269 206 78 24 302 105 122 237 229 208 269 151 179 147 162 170 168 170 170 172 175 157 154 158 147 143 157 181 96 147 152 187 180 192 201 186 228 202 201 219 190 188 191 184 184 210 209 211
259 156 330 12 35 15 112 158 167 317 6 339 137 158 157 168 175 181 164 161 178 160 167 168 146 189 139 191 194 195 166 165 179 216 197 222 194 224 204 199 212 208 185 182 229 200 195 213 228
203 136 1 8 180 113 117 109 40 75 304 222 191 154 165 172 174 177 153 159 169 156 169 174 132 157 164 263 171 267 165 22 345 222 195 190 211 223 209 197 209 198 236 179 204 199 174 206 221
260 55 169 200 130 136 197 156 228 106 188 150 151 158 174 170 160 130 203 140 192 158 166 141 142 161 202 204 219 305 273 200 213 216 140 242 184 221 219 183 189 198 210 248 190 203 183 213 226
116 135 247 181 172 141 266 159 95 113 150 150 162 132 172 166 169 159 153 154 175 167 159 137 134 168 205 202 194 227 243 89 153 196 118 142 258 231 203 182 178 183 199 218 243 203 238 224 216
152 212 220 208 196 163 234 201 130 156 154 166 130 142 191 170 156 167 167 185 150 157 151 150 178 178 181 198 190 241 204 53 270 93 88 353 288 267 66 159 185 150 172 192 195 202 213 250 216
106 275 196 205 190 238 214 185 135 160 176 151 151 162 153 175 163 168 161 203 149 172 155 179 169 227 140 141 271 230 180 213 215 136 182 111 249 348 70 271 166 172 185 187 199 189 211 228 278
159 291 262 143 214 205 188 124 144 166 186 158 163 155 177 178 175 178 174 186 151 164 166 176 172 161 222 265 227 287 238 252 233 222 117 155 222 127 283 149 142 172 237 171 141 210 177 226 254
289 320 110 8 117 247 227 139 163 172 192 168 173 180 179 171 193 179 201 172 176 174 165 190 172 185 195 208 216 213 241 189 223 206 128 240 251 172 243 16 137 167 197 159 188 188 189 221 222
231 245 340 52 152 220 155 220 158 180 186 175 190 183 175 162 180 163 184 184 185 180 180 193 199 185 206 214 239 295 330 237 108 276 54 279 257 196 229 308 103 150 181 170 216 222 193 236 192
324 353 197 175 187 207 185 211 161 178 182 179 190 188 175 164 165 171 180 187 191 178 187 194 200 209 215 253 198 171 254 269 223 256 160 185 182 212 171 255 320 189 181 192 211 215 246 204 197
169 4 307 256 141 314 207 293 197 171 187 189 193 194 188 178 187 179 187 195 194 194 198 202 197 197 206 207 221 215 232 226 133 205 162 324 175 238 210 215 239 231 150 175 211 213 237 251 233
14 328 248 249 247 42 186 238 159 174 187 192 197 190 203 190 192 200 191 183 195 186 189 183 189 205 221 189 235 184 232 235 241 196 98 246 196 195 237 177 223 236 254 136 197 205 237 224 268
303 262 223 219 45 267 124 104 160 172 195 189 192 195 197 196 196 192 197 189 184 177 188 177 163 189 202 195 202 215 196 253 264 183 251 223 195 177 174 223 215 231 243 236 241 197 221 262 257
246 251 0 331 126 132 58 155 74 116 171 184 187 194 191 193 193 191 192 193 196 186 183 179 169 187 192 197 198 204 212 216 235 236 226 321 261 201 151 183 211 221 211 246 243 278 264 212 235
314 320 136 254 179 245 146 121 71 102 108 170 168 184 191 197 191 193 191 193 187 188 185 190 167 187 189 196 201 199 203 214 217 208 267 249 270 216 120 188 234 221 229 227 238 225 231 232 206
293 314 342 94 287 13 97 100 109 106 126 155 214 172 189 195 202 187 188 193 186 188 183 187 171 188 190 190 194 197 201 228 219 239 196 232 239 267 198 216 228 237 244 253 240 247 282 265 292
276 177 315 29 228 125 321 85 92 153 164 171 194 189 188 195 201 182 195 188 185 185 185 189 181 192 189 197 188 197 201 210 225 220 228 249 266 226 248 215 233 234 239 246 246 261 262 315 274
208 216 175 194 255 155 88 312 31 118 120 160 175 205 213 201 196 194 186 188 189 193 188 179 192 203 184 196 182 194 198 202 208 216 220 228 239 238 230 238 250 246 263 284 277 327 321 336 285
288 300 267 203 357 289 219 202 101 76 118 116 97 122 243 220 194 198 181 189 174 186 212 216 87 167 178 189 192 192 202 208 206 213 213 222 232 241 226 239 253 303 340 337 8 290 301 292 284